Flag for U.S.A. Weather past 2 weeks in Sterling Heights, Michigan, U.S.A.

Now
62 °F

Fog.


Feels Like: 62 °F
Forecast: 61 / 73 °F
Wind: 6 mph from Northeast

Location: Selfridge Air National Guard Base

Current Time: Jul 1, 2015 at 1:41:20 AM

Latest Report: Jul 1, 2015 at 12:58 AM


Visibility: 2 mi

Pressure: 29.78 "Hg

Humidity: 98%

Dew point: 62 °F

Location of Sterling HeightsLocation

Historic Weather in Sterling Heights — Graph

°F

Sterling Heights temperature yesterday

Maximum temperature yesterday: 71 °F (at 2:55 PM)
Minimum temperature yesterday: 63 °F (at 11:58 PM)
Average temperature yesterday: 65 °F

Past Weeks' High & Low Weather Summary

 TemperatureHumidityPressure
High83 °F (Jun 21, 3:55 PM)100% (Jun 16, 2:58 AM)30.16 "Hg (Jun 16, 2:58 AM)
Low50 °F (Jun 20, 4:58 AM)37% (Jun 24, 12:55 PM)29.68 "Hg (Jun 23, 2:58 AM)
Average67 °F77%29.93 "Hg
* Reported Midnight between Jun 15 and Jun 16 — Jun 30 11:58 PM, Sterling Heights, Weather by CustomWeather, © 2015

Note: Actual official high and low records may vary slightly from our data, if they occured in-between our weather recording intervals... More about our weather records

Advertising

Sterling Heights weather history for previous 24 hours

 ConditionsComfort  
Time TempWeatherWind HumidityBarometerVisibility
11:58 PM
Tue, Jun 30
63 °FFog.7 mph96%29.78 "Hg2 mi
11:04 PM64 °FLight rain. Fog.6 mph94%29.77 "Hg2 mi
10:58 PM64 °FFog.7 mph97%29.78 "Hg2 mi
9:58 PM63 °FFog.No wind95%29.75 "Hg2 mi
9:03 PM66 °FRain. Fog.8 mph94%29.75 "Hg1 mi
7:58 PM66 °FThundershowers. Cloudy.No wind92%29.75 "Hg7 mi
6:55 PM67 °FBroken clouds.6 mph89%29.74 "Hg7 mi
5:55 PM67 °FThundershowers. Broken clouds.8 mph90%29.75 "Hg10 mi
4:55 PM67 °FSprinkles. Cloudy.6 mph88%29.75 "Hg10 mi
3:55 PM70 °FBroken clouds.8 mph76%29.75 "Hg10 mi
2:55 PM71 °FBroken clouds.7 mph75%29.77 "Hg10 mi
1:55 PM68 °FBroken clouds.7 mph81%29.78 "Hg10 mi
12:55 PM67 °FCloudy.5 mph84%29.80 "Hg10 mi
11:55 AM67 °FMostly cloudy.6 mph84%29.80 "Hg10 mi
10:55 AM65 °FMostly cloudy.3 mph89%29.80 "Hg10 mi
9:55 AM64 °FMostly cloudy.6 mph90%29.82 "Hg10 mi
8:55 AM64 °FMostly cloudy.5 mph90%29.82 "Hg10 mi
7:55 AM63 °FMore clouds than sun.5 mph91%29.82 "Hg10 mi
6:58 AM63 °FOvercast.6 mph91%29.79 "Hg10 mi
5:58 AM63 °FOvercast.6 mph88%29.78 "Hg10 mi
4:58 AM64 °FMostly cloudy.7 mph85%29.78 "Hg10 mi
3:58 AM64 °FMostly cloudy.6 mph85%29.79 "Hg10 mi
2:58 AM65 °FOvercast.9 mph84%29.81 "Hg10 mi
1:58 AM65 °FMostly cloudy.5 mph86%29.80 "Hg10 mi
Weather by CustomWeather, © 2015

See weather overviewHow to use our weather pages